[[{"header":{"parameterUnit":"m.s-1","parameterCategory":1,"la1":30.2991,"la2":30.254,"lo1":-89.0895,"lo2":-89.0444,"dy":0.0017,"dx":0.0017,"nx":28,"ny":28,"refTime":"2023-09-06T03:00:00:Z","depth":0,"parameterNumber":2,"parameterNumberName":"U-component_of_WINDS"},"data":[0,0,0,0,0,0,0,0,0,0,0,0,0,0,0,0,0,0,0,0,0,0,0,0,0,0,0,0,0,0,0,0,0,0,0,0,0,0,0,0,0,0,0,0,0,0,0,0,0,0,0,0,0,0,0,0,0,0,2.6764,2.6764,0,2.6798,2.6799,2.6799,2.6785,2.6784,2.6783,2.6783,2.6818,2.682,2.6821,0,0,0,0,0,0,0,0,0,0,0,0,0,2.6687,2.6689,2.6764,2.6764,2.6765,2.6798,2.6799,2.6799,2.6785,2.6784,2.6783,2.6782,2.6818,2.682,2.6822,0,0,0,0,0,0,0,0,0,0,0,0,0,2.6721,2.6689,2.6764,2.6762,2.6762,2.6798,2.6799,2.6799,2.6785,2.6784,2.6783,2.6782,2.6817,2.6819,2.6822,2.6862,0,0,2.683,2.6831,0,0,0,0,0,0,0,0,2.6719,2.6724,2.6762,2.6762,2.6762,2.6786,2.6785,2.682,2.6786,2.6777,2.6783,2.6781,2.6808,2.6812,2.6821,2.6864,2.6865,2.683,2.6831,2.6833,2.6833,0,0,0,0,0,0,0,2.6717,2.6722,2.6778,2.6762,2.6763,2.676,2.6763,2.6791,2.6799,2.6777,2.6776,2.6781,2.6808,2.6818,2.6821,2.6866,2.683,2.6832,2.6834,2.6835,2.6945,2.6946,0,0,0,0,0,0,2.6714,2.672,2.6776,2.6779,2.6737,2.6762,2.6766,2.678,2.6799,2.68,2.6782,2.678,2.6815,2.6819,2.6823,2.6872,2.6832,2.6835,2.6836,2.6944,2.6945,2.6947,0,0,0,0,0,0,2.6713,2.6719,2.6775,2.6749,2.6756,2.6765,2.678,2.6781,2.6791,2.6802,2.6803,2.679,2.6814,2.6819,2.6853,2.6873,2.6836,2.6838,2.6942,2.6944,2.6946,2.697,0,0,0,0,0,0,2.6711,2.6719,2.6734,2.675,2.6758,2.6804,2.6782,2.6783,2.6795,2.6793,2.681,2.6812,2.6813,2.6849,2.6855,2.6876,2.684,2.694,2.6943,2.6945,2.6968,2.6973,2.6977,0,0,0,0,0,2.6708,2.6739,2.6735,2.6742,2.6777,2.6805,2.681,2.6811,2.6797,2.6813,2.682,2.6811,2.687,2.6853,2.6859,2.6881,2.6939,2.6942,2.6945,2.6966,2.6972,2.6977,0,0,0,0,0,0,2.6725,2.6741,2.6736,2.6774,2.6788,2.6803,2.6822,2.6817,2.6836,2.6833,2.6833,2.6837,2.6872,2.688,2.6861,2.6922,2.6902,2.6907,2.6915,2.6922,2.6926,2.6924,2.6842,0,0,0,0,0,2.6734,2.6755,2.6768,2.68,2.6808,2.6814,2.6826,2.6826,2.6841,2.6847,2.6857,2.6872,2.6894,2.6908,2.6929,2.6969,2.6973,2.6987,2.6992,2.6996,2.7,2.7023,2.703,2.6957,2.6957,2.6957,0,0,2.6751,2.6762,2.6776,2.6804,2.6815,2.6838,2.6819,2.6844,2.6862,2.6851,2.6883,2.6891,2.6908,2.6946,2.6963,2.6953,2.7021,2.7,2.7003,2.7005,2.7027,2.7034,2.704,2.6959,2.6959,2.6959,0,0,2.6794,2.6804,2.6832,2.6844,2.6862,2.6866,2.6873,2.6889,2.6893,2.6926,2.6919,2.694,2.6977,2.699,2.7001,2.7051,2.7044,2.7058,2.7083,2.7105,2.7111,2.7116,2.7135,2.7141,2.7062,2.7062,2.7062,0,2.6813,2.6847,2.6848,2.6874,2.6887,2.6878,2.6907,2.6919,2.6942,2.6951,2.6941,2.6988,2.6999,2.704,2.7052,2.7061,2.707,2.7056,2.711,2.7115,2.712,2.7138,2.7144,2.7063,2.7063,2.7063,2.7063,0,2.6871,2.6895,2.6915,2.6938,2.6954,2.6981,2.6986,2.7001,2.7,2.7005,2.7039,2.7052,2.7076,2.7085,2.7084,2.7126,2.712,2.711,2.709,2.7129,2.7145,2.7152,2.7065,2.7065,2.7064,2.7064,0,0,2.6925,2.6949,2.6956,2.6967,2.6987,2.7005,2.7033,2.7056,2.707,2.7086,2.711,2.7142,2.7133,2.7146,2.7146,2.7166,2.7205,2.7153,2.7153,2.7163,2.7254,2.7262,2.727,2.7201,2.7202,2.7203,2.7253,0,2.697,2.7018,2.702,2.7064,2.7087,2.708,2.7104,2.7118,2.7125,2.7145,2.7152,2.7175,2.7161,2.7169,2.7188,2.7196,2.7224,2.7193,2.7223,2.7224,2.722,2.7278,2.7286,2.7332,2.7259,2.726,2.7261,0,2.7029,2.7048,2.7095,2.7112,2.7121,2.7143,2.7165,2.7185,2.7201,2.7205,2.722,2.7217,2.7246,2.7226,2.7266,2.7245,2.7257,2.7263,2.7265,2.7268,2.7245,2.7283,2.7347,2.7354,2.7271,2.727,2.727,0,2.7066,2.7103,2.7136,2.7145,2.7165,2.7181,2.719,2.7206,2.722,2.7239,2.7249,2.7271,2.7284,2.7301,2.7305,2.729,2.7346,2.7325,2.7349,2.7349,2.7361,2.7361,2.7429,2.7369,2.7369,2.7369,2.7369,0,2.7116,2.7145,2.7152,2.7172,2.7205,2.7207,2.7239,2.7247,2.7261,2.7283,2.7279,2.73,2.7303,2.7325,2.7328,2.7361,2.7367,2.7371,2.7371,2.7371,2.7371,2.738,2.7377,2.7371,2.737,2.737,2.737,0,2.7162,2.7168,2.7203,2.722,2.7225,2.7248,2.7263,2.7283,2.7288,2.7317,2.7323,2.7333,2.7359,2.7364,2.7394,2.7397,2.7436,2.7433,2.7431,2.743,2.7455,2.7452,2.7531,2.7541,2.7475,2.7475,2.7476,0,2.7194,2.7216,2.7236,2.725,2.726,2.7284,2.7298,2.7301,2.7317,2.7338,2.7356,2.7381,2.7401,2.7443,2.7453,2.7476,2.7474,2.75,2.7477,2.7477,2.7475,2.7474,2.7476,2.7504,2.7505,2.7506,2.7506,0,2.7251,2.7253,2.7274,2.7297,2.7315,2.7333,2.735,2.7362,2.7367,2.7385,2.7412,2.7428,2.7459,2.7484,2.7508,2.7518,2.7513,2.7513,2.752,2.752,2.7518,2.752,2.7443,2.7511,2.7511,2.751,2.751,2.751,2.7291,2.7311,2.7328,2.7352,2.7366,2.7382,2.7402,2.741,2.7432,2.7458,2.7458,2.7487,2.7505,2.7536,2.7548,2.7571,2.7563,2.7572,2.7575,2.7578,2.758,2.7514,2.7575,2.7575,2.7575,2.7574,2.7574,0,2.7348,2.7359,2.7381,2.7406,2.7425,2.7419,2.7438,2.7455,2.748,2.7496,2.7517,2.7548,2.7572,2.7584,2.7609,2.7625,2.7624,2.7632,2.7631,2.7633,2.7585,2.7577,2.7633,2.7633,2.7633,2.7633,2.7633,2.7633,2.738,2.7414,2.7418,2.7458,2.7469,2.7497,2.7509,2.7524,2.7537,2.7572,2.7592,2.76,2.7615,2.7641,2.7664,2.7667,2.7676,2.7685,2.7687,2.7642,2.7636,2.7631,2.7623,2.7687,2.7687,2.7733,2.7734,2.7734]},{"header":{"parameterUnit":"m.s-1","parameterCategory":1,"la1":30.2991,"la2":30.254,"lo1":-89.0895,"lo2":-89.0444,"dy":0.0017,"dx":0.0017,"nx":28,"ny":28,"refTime":"2023-09-06T03:00:00:Z","depth":0,"parameterNumber":3,"parameterNumberName":"V-component_of_WINDS"},"data":[0,0,0,0,0,0,0,0,0,0,0,0,0,0,0,0,0,0,0,0,0,0,0,0,0,0,0,0,0,0,0,0,0,0,0,0,0,0,0,0,0,0,0,0,0,0,0,0,0,0,0,0,0,0,0,0,0,0,-0.0476,-0.0476,0,-0.0529,-0.053,-0.053,-0.0554,-0.0554,-0.0554,-0.0554,-0.061,-0.0612,-0.0613,0,0,0,0,0,0,0,0,0,0,0,0,0,-0.0398,-0.0399,-0.0476,-0.0477,-0.0477,-0.0529,-0.053,-0.053,-0.0554,-0.0554,-0.0554,-0.0554,-0.061,-0.0611,-0.0613,0,0,0,0,0,0,0,0,0,0,0,0,0,-0.0439,-0.0399,-0.0476,-0.0495,-0.0497,-0.0529,-0.053,-0.0531,-0.0554,-0.0554,-0.0554,-0.0554,-0.0609,-0.0611,-0.0614,-0.063,0,0,-0.0621,-0.0622,0,0,0,0,0,0,0,0,-0.0437,-0.0442,-0.0492,-0.0494,-0.0497,-0.0535,-0.0523,-0.0564,-0.0554,-0.0533,-0.0554,-0.0554,-0.0585,-0.0589,-0.06,-0.0633,-0.0635,-0.0621,-0.0622,-0.0623,-0.0624,0,0,0,0,0,0,0,-0.0434,-0.044,-0.0497,-0.0492,-0.0495,-0.0502,-0.0508,-0.0531,-0.0559,-0.0535,-0.0536,-0.0542,-0.0587,-0.0597,-0.0601,-0.0636,-0.0621,-0.0623,-0.0624,-0.0625,-0.0686,-0.0686,0,0,0,0,0,0,-0.0428,-0.0437,-0.0495,-0.0499,-0.0466,-0.0504,-0.051,-0.0523,-0.0559,-0.0564,-0.0542,-0.0543,-0.0593,-0.0598,-0.0603,-0.0626,-0.0623,-0.0625,-0.0627,-0.0686,-0.0686,-0.0686,0,0,0,0,0,0,-0.0426,-0.0433,-0.0493,-0.0469,-0.0477,-0.0505,-0.0519,-0.0524,-0.0535,-0.0565,-0.057,-0.0548,-0.0594,-0.06,-0.0623,-0.0628,-0.0627,-0.0629,-0.0686,-0.0686,-0.0686,-0.067,0,0,0,0,0,0,-0.0424,-0.0432,-0.0438,-0.0468,-0.0478,-0.0511,-0.0519,-0.0525,-0.0538,-0.054,-0.0571,-0.0576,-0.0594,-0.062,-0.0626,-0.0631,-0.063,-0.0685,-0.0686,-0.0686,-0.067,-0.067,-0.0669,0,0,0,0,0,-0.0421,-0.0431,-0.0438,-0.0445,-0.0486,-0.0512,-0.0517,-0.0536,-0.0539,-0.0545,-0.0565,-0.0575,-0.0626,-0.0622,-0.0629,-0.0635,-0.0685,-0.0686,-0.0686,-0.0671,-0.067,-0.0669,0,0,0,0,0,0,-0.04,-0.0435,-0.0443,-0.0464,-0.0484,-0.0515,-0.0524,-0.0535,-0.0556,-0.0557,-0.0581,-0.0588,-0.0609,-0.0624,-0.0619,-0.0654,-0.0657,-0.0659,-0.0643,-0.0642,-0.0642,-0.0638,-0.0632,0,0,0,0,0,-0.0398,-0.0415,-0.0445,-0.0461,-0.0471,-0.0496,-0.0508,-0.0521,-0.0544,-0.0553,-0.0574,-0.0596,-0.0617,-0.0631,-0.0652,-0.0673,-0.0681,-0.0681,-0.068,-0.068,-0.0681,-0.0695,-0.0695,-0.0688,-0.0688,-0.0688,0,0,-0.0394,-0.0415,-0.0425,-0.0457,-0.0475,-0.0493,-0.0503,-0.0522,-0.0536,-0.0556,-0.0579,-0.0595,-0.0622,-0.0644,-0.0655,-0.0658,-0.0685,-0.068,-0.068,-0.0681,-0.0695,-0.0696,-0.0696,-0.0688,-0.0688,-0.0688,0,0,-0.0396,-0.0413,-0.0428,-0.0446,-0.0472,-0.0489,-0.0493,-0.0522,-0.0534,-0.0558,-0.0573,-0.0591,-0.0626,-0.0645,-0.0659,-0.0669,-0.068,-0.0675,-0.0673,-0.0686,-0.0687,-0.0687,-0.0692,-0.0693,-0.0677,-0.0677,-0.0677,0,-0.0388,-0.0415,-0.0435,-0.0453,-0.0467,-0.0486,-0.0502,-0.0518,-0.0551,-0.056,-0.0563,-0.0608,-0.0627,-0.0655,-0.0658,-0.0668,-0.0674,-0.0672,-0.0685,-0.0686,-0.0686,-0.0691,-0.0693,-0.0676,-0.0676,-0.0676,-0.0676,0,-0.0404,-0.0423,-0.0432,-0.0462,-0.0478,-0.0495,-0.0518,-0.0532,-0.0544,-0.0561,-0.0585,-0.0609,-0.0635,-0.0643,-0.0655,-0.0673,-0.0674,-0.068,-0.0684,-0.0686,-0.0691,-0.0693,-0.0675,-0.0675,-0.0675,-0.0676,0,0,-0.0394,-0.0436,-0.0439,-0.0453,-0.0484,-0.05,-0.0518,-0.0544,-0.0555,-0.0577,-0.0594,-0.0624,-0.0631,-0.0647,-0.0661,-0.0672,-0.068,-0.0677,-0.0678,-0.0678,-0.0702,-0.0698,-0.0699,-0.0687,-0.0688,-0.0688,-0.07,0,-0.0401,-0.0434,-0.0453,-0.0479,-0.0497,-0.0515,-0.0532,-0.0553,-0.0569,-0.0588,-0.0607,-0.0628,-0.0634,-0.0644,-0.0656,-0.0676,-0.0685,-0.0676,-0.0704,-0.0705,-0.0697,-0.0702,-0.0697,-0.0707,-0.0702,-0.0703,-0.0703,0,-0.0413,-0.0434,-0.0462,-0.0491,-0.05,-0.0514,-0.054,-0.0557,-0.0582,-0.0594,-0.0612,-0.0626,-0.0648,-0.065,-0.068,-0.0673,-0.0686,-0.0698,-0.0699,-0.0703,-0.0704,-0.0706,-0.0711,-0.0713,-0.0706,-0.0706,-0.0705,0,-0.0404,-0.044,-0.0461,-0.0473,-0.0508,-0.0517,-0.0533,-0.0558,-0.0572,-0.0595,-0.0605,-0.063,-0.0644,-0.0663,-0.0685,-0.0684,-0.0713,-0.0717,-0.0724,-0.0724,-0.073,-0.0729,-0.0737,-0.0737,-0.0737,-0.0737,-0.0737,0,-0.041,-0.0426,-0.0457,-0.0471,-0.049,-0.0512,-0.0531,-0.0547,-0.057,-0.0587,-0.0605,-0.0621,-0.0648,-0.0668,-0.0685,-0.0708,-0.0714,-0.0725,-0.0729,-0.0723,-0.0722,-0.0732,-0.0732,-0.0737,-0.0737,-0.0737,-0.0737,0,-0.0403,-0.0425,-0.0449,-0.0481,-0.0489,-0.0502,-0.0529,-0.0543,-0.0561,-0.0583,-0.0589,-0.0617,-0.0642,-0.0665,-0.0698,-0.0709,-0.0733,-0.0738,-0.0724,-0.0727,-0.0733,-0.0732,-0.0748,-0.0752,-0.0748,-0.0748,-0.0748,0,-0.0406,-0.0419,-0.0451,-0.0464,-0.0479,-0.0499,-0.0514,-0.0537,-0.0552,-0.0582,-0.0593,-0.0619,-0.064,-0.0679,-0.0703,-0.0728,-0.0735,-0.0738,-0.0739,-0.0733,-0.0736,-0.0735,-0.0737,-0.0738,-0.0738,-0.0738,-0.0738,0,-0.0408,-0.0418,-0.0439,-0.0463,-0.0481,-0.0501,-0.0523,-0.0532,-0.0559,-0.0576,-0.0601,-0.0618,-0.0651,-0.0677,-0.0705,-0.0722,-0.0735,-0.0738,-0.0741,-0.0735,-0.0727,-0.0733,-0.0723,-0.0737,-0.0737,-0.0737,-0.0737,-0.0737,-0.0406,-0.0419,-0.0444,-0.0467,-0.0486,-0.0505,-0.052,-0.054,-0.0561,-0.059,-0.0602,-0.0628,-0.0654,-0.0693,-0.071,-0.0731,-0.0734,-0.0738,-0.074,-0.0741,-0.074,-0.0723,-0.0736,-0.0736,-0.0736,-0.0737,-0.0737,0,-0.041,-0.0428,-0.0448,-0.0477,-0.0496,-0.0506,-0.053,-0.0545,-0.0567,-0.059,-0.0611,-0.0641,-0.0666,-0.0692,-0.0719,-0.0731,-0.0738,-0.0737,-0.0737,-0.0741,-0.0735,-0.073,-0.0731,-0.0731,-0.0731,-0.0731,-0.0731,-0.0731,-0.0414,-0.0437,-0.045,-0.0482,-0.05,-0.0525,-0.0538,-0.0557,-0.0575,-0.0607,-0.0628,-0.0645,-0.067,-0.0699,-0.0723,-0.073,-0.0739,-0.0738,-0.0746,-0.0741,-0.0741,-0.0741,-0.0737,-0.0739,-0.0739,-0.075,-0.075,-0.0751]}]]